GW1802 Weather Reports


time (UTC)temp
F
wind
direction
speed
knots
gust
knots
rain 1hr
in
rain 24hr
in
rain mn
in
humidity
%
barometer
mb
20260504050338 52 352 10.4 14.8 0.00 0.00 0.00 48 1014.9
20260504045836 52 352 9.6 12.2 0.00 0.00 0.00 47 1014.8
20260504045337 53 0 7.8 13.9 0.00 0.00 0.00 47 1014.9
20260504044836 53 9 9.6 13.9 0.00 0.00 0.00 47 1014.8
20260504044332 53 9 9.6 13.9 0.00 0.00 0.00 45 1014.9
20260504043830 53 0 9.6 15.6 0.00 0.00 0.00 45 1014.9
20260504043325 53 5 9.6 15.6 0.00 0.00 0.00 45 1014.8
20260504042821 53 0 12.2 15.6 0.00 0.00 0.00 45 1014.7
20260504042320 53 352 11.3 17.4 0.00 0.00 0.00 44 1014.7
20260504041822 53 0 12.2 17.4 0.00 0.00 0.00 45 1014.6
20260504041321 54 352 11.3 17.4 0.00 0.00 0.00 44 1014.6
20260504040819 54 0 9.6 15.6 0.00 0.00 0.00 43 1014.4
20260504040315 54 17 12.2 15.6 0.00 0.00 0.00 42 1014.1
20260504035814 54 32 7.8 13.0 0.00 0.00 0.00 43 1013.9
20260504035312 54 352 11.3 15.6 0.00 0.00 0.00 42 1014.1
20260504035041 55 352 10.4 19.1 0.00 0.00 0.00 41 1013.9
20260504034312 55 9 10.4 19.1 0.00 0.00 0.00 41 1013.9
20260504033810 55 9 11.3 17.4 0.00 0.00 0.00 39 1013.8
20260504033304 55 9 11.3 17.4 0.00 0.00 0.00 38 1013.7
20260504033019 55 5 10.4 15.6 0.00 0.00 0.00 38 1013.5
20260504032524 55 0 7.8 14.8 0.00 0.00 0.00 38 1013.4
20260504031757 56 0 6.1 13.0 0.00 0.00 0.00 37 1013.1
20260504031253 56 22 5.2 13.0 0.00 0.00 0.00 37 1012.9
20260504031015 56 23 7.8 13.9 0.00 0.00 0.00 37 1012.9
20260504030249 56 40 6.1 13.9 0.00 0.00 0.00 36 1012.6
20260504025747 56 38 7.0 13.9 0.00 0.00 0.00 36 1012.6
20260504025253 56 5 7.0 13.9 0.00 0.00 0.00 36 1012.4
20260504024755 57 22 11.3 15.6 0.00 0.00 0.00 35 1012.3
20260504024246 57 36 10.4 15.6 0.00 0.00 0.00 35 1012.1
20260504024020 57 49 9.6 15.6 0.00 0.00 0.00 35 1012.1
20260504023246 58 26 8.7 15.6 0.00 0.00 0.00 35 1011.9
20260504023003 58 350 11.3 15.6 0.00 0.00 0.00 34 1011.7
20260504022241 58 32 9.6 18.2 0.00 0.00 0.00 34 1011.6
20260504021739 58 16 10.4 19.1 0.00 0.00 0.00 34 1011.5
20260504021234 58 10 12.2 19.1 0.00 0.00 0.00 33 1011.5
20260504020727 59 40 9.6 16.5 0.00 0.00 0.00 33 1011.4
20260504020229 59 344 8.7 16.5 0.00 0.00 0.00 33 1011.2
20260504015729 59 44 10.4 20.0 0.00 0.00 0.00 33 1011.3
20260504015226 60 0 11.3 20.0 0.00 0.00 0.00 33 1011.0
20260504014724 60 17 11.3 19.1 0.00 0.00 0.00 33 1011.0
20260504014716 60 352 11.3 18.2 0.00 0.00 0.00 33 1010.8
20260504013719 60 53 11.3 18.2 0.00 0.00 0.00 33 1010.8
20260504013218 61 0 7.8 19.1 0.00 0.00 0.00 32 1010.8
20260504012725 61 11 10.4 19.1 0.00 0.00 0.00 32 1010.8
20260504012213 61 348 11.3 20.9 0.00 0.00 0.00 32 1010.7
20260504011709 62 0 12.2 20.9 0.00 0.00 0.00 31 1010.6
20260504011202 62 30 10.4 20.9 0.00 0.00 0.00 31 1010.5
20260504010701 62 5 12.2 20.9 0.00 0.00 0.00 31 1010.4
20260504010157 63 22 11.3 18.2 0.00 0.00 0.00 30 1010.4
20260504005928 64 17 9.6 20.0 0.00 0.00 0.00 30 1010.5
20260504005159 64 5 10.4 20.9 0.00 0.00 0.00 30 1010.3
20260504004653 65 16 13.0 21.7 0.00 0.00 0.00 30 1010.2
20260504004419 65 41 12.2 21.7 0.00 0.00 0.00 30 1010.2
20260504003918 65 22 11.3 18.2 0.00 0.00 0.00 30 1010.0
20260504003144 66 20 11.3 20.9 0.00 0.00 0.00 30 1010.0
20260504002645 67 352 10.4 20.9 0.00 0.00 0.00 29 1010.0
20260504002407 67 40 11.3 17.4 0.00 0.00 0.00 29 1009.9
20260504001858 67 22 8.7 16.5 0.00 0.00 0.00 30 1009.8
20260504001135 67 9 8.7 17.4 0.00 0.00 0.00 29 1009.7
20260504000630 68 39 11.3 20.9 0.00 0.00 0.00 28 1009.6
20260504000129 68 334 12.2 20.9 0.00 0.00 0.00 28 1009.6
20260503235625 69 350 14.8 20.9 0.00 0.00 0.00 29 1009.6
20260503235124 69 5 13.0 19.1 0.00 0.00 0.00 29 1009.4
20260503234622 69 5 13.9 18.2 0.00 0.00 0.00 28 1009.3
20260503234617 69 18 8.7 17.4 0.00 0.00 0.00 28 1009.2
20260503233840 69 34 11.3 17.4 0.00 0.00 0.00 29 1009.0
20260503233113 69 16 11.3 17.4 0.00 0.00 0.00 28 1009.2
20260503232604 69 24 9.6 19.1 0.00 0.00 0.00 29 1009.2
20260503232106 69 352 10.4 19.1 0.00 0.00 0.00 29 1009.0
20260503231606 69 26 11.3 18.2 0.00 0.00 0.00 30 1009.2
20260503231104 69 5 13.9 20.0 0.00 0.00 0.00 30 1009.0
20260503230555 69 351 15.6 23.5 0.00 0.00 0.00 30 1009.0
20260503230055 69 12 16.5 23.5 0.00 0.00 0.00 30 1009.2
20260503225552 69 348 12.2 20.9 0.00 0.00 0.00 30 1009.0
20260503225050 69 352 15.6 20.9 0.00 0.00 0.00 30 1008.9
20260503224546 69 352 12.2 20.9 0.00 0.00 0.00 30 1008.9
20260503224044 69 344 12.2 20.0 0.00 0.00 0.00 30 1009.2
20260503223807 69 5 13.9 18.2 0.00 0.00 0.00 31 1009.0
20260503223045 68 11 13.0 21.7 0.00 0.00 0.00 30 1009.2
20260503222537 68 18 13.9 23.5 0.00 0.00 0.00 29 1009.2
20260503222254 68 29 16.5 25.2 0.00 0.00 0.00 30 1009.0
20260503221538 68 347 8.7 25.2 0.00 0.00 0.00 30 1009.2
20260503221035 68 9 13.9 23.5 0.00 0.00 0.00 30 1009.2
20260503220752 68 5 11.3 19.1 0.00 0.00 0.00 29 1009.2
20260503220034 68 5 13.0 20.0 0.00 0.00 0.00 30 1009.3
20260503215530 68 17 10.4 22.6 0.00 0.00 0.00 30 1009.2
20260503215027 68 12 16.5 22.6 0.00 0.00 0.00 29 1009.3
20260503214530 68 5 13.0 20.0 0.00 0.00 0.00 30 1009.3
20260503214025 68 24 11.3 20.0 0.00 0.00 0.00 29 1009.2
20260503213519 69 5 13.9 19.1 0.00 0.00 0.00 29 1009.0
20260503213239 69 14 10.4 21.7 0.00 0.00 0.00 29 1009.2
20260503212513 70 5 11.3 21.7 0.00 0.00 0.00 28 1009.2
20260503212011 70 15 11.3 20.9 0.00 0.00 0.00 28 1009.3
20260503211510 71 11 15.6 20.9 0.00 0.00 0.00 27 1009.3
20260503211005 71 27 8.7 18.2 0.00 0.00 0.00 27 1009.2
20260503210503 72 18 9.6 18.2 0.00 0.00 0.00 25 1009.2
20260503210010 72 9 11.3 20.0 0.00 0.00 0.00 26 1009.2
20260503205503 73 19 15.6 20.0 0.00 0.00 0.00 25 1009.3
20260503205000 74 351 10.4 18.2 0.00 0.00 0.00 26 1009.3
20260503204457 74 5 13.9 18.2 0.00 0.00 0.00 25 1009.4
20260503203957 74 34 13.0 18.2 0.00 0.00 0.00 25 1009.4
20260503203450 73 327 10.4 19.1 0.00 0.00 0.00 27 1009.5
20260503202947 73 331 12.2 20.0 0.00 0.00 0.00 25 1009.5
20260503202446 73 350 10.4 20.0 0.00 0.00 0.00 25 1009.4
20260503201947 74 342 13.0 17.4 0.00 0.00 0.00 25 1009.5
20260503201443 74 26 13.0 19.1 0.00 0.00 0.00 25 1009.6
20260503200938 73 331 11.3 20.0 0.00 0.00 0.00 27 1009.8
20260503200711 73 348 13.0 20.0 0.00 0.00 0.00 26 1009.8
20260503200158 73 346 10.4 19.1 0.00 0.00 0.00 28 1009.8
20260503195429 72 336 10.4 18.2 0.00 0.00 0.00 26 1009.9
20260503194923 72 352 12.2 21.7 0.00 0.00 0.00 26 1010.0
20260503194902 72 323 12.2 21.7 0.00 0.00 0.00 27 1010.2
20260503194145 71 0 13.9 20.0 0.00 0.00 0.00 27 1010.2
20260503193420 72 0 11.3 20.9 0.00 0.00 0.00 26 1010.3
20260503193142 71 0 14.8 20.9 0.00 0.00 0.00 26 1010.2
20260503192640 71 15 12.2 16.5 0.00 0.00 0.00 26 1010.3
20260503191914 71 347 9.6 19.1 0.00 0.00 0.00 26 1010.4
20260503191407 71 319 15.6 19.1 0.00 0.00 0.00 27 1010.4
20260503190907 71 0 7.8 18.2 0.00 0.00 0.00 26 1010.5
20260503190403 71 331 10.4 20.0 0.00 0.00 0.00 26 1010.5
20260503185900 71 329 13.0 20.0 0.00 0.00 0.00 27 1010.7
20260503185356 70 327 8.7 17.4 0.00 0.00 0.00 29 1010.7
20260503184856 70 332 13.0 17.4 0.00 0.00 0.00 28 1010.8
20260503184351 69 352 13.9 16.5 0.00 0.00 0.00 28 1010.9
20260503183851 69 5 12.2 19.1 0.00 0.00 0.00 28 1011.0
20260503183350 69 30 13.0 26.9 0.00 0.00 0.00 28 1011.0
20260503183118 69 347 18.2 26.9 0.00 0.00 0.00 28 1011.2
20260503182344 69 333 15.6 20.0 0.00 0.00 0.00 29 1011.0
20260503181845 68 352 13.0 21.7 0.00 0.00 0.00 29 1011.2
20260503181339 68 5 16.5 21.7 0.00 0.00 0.00 28 1011.3
20260503180835 68 14 13.0 20.9 0.00 0.00 0.00 29 1011.3
20260503180331 68 0 12.2 20.0 0.00 0.00 0.00 29 1011.4
20260503175833 67 332 11.3 20.0 0.00 0.00 0.00 30 1011.5
20260503175328 67 15 13.0 20.9 0.00 0.00 0.00 29 1011.5
20260503174825 67 5 16.5 20.9 0.00 0.00 0.00 28 1011.6
20260503174323 68 26 9.6 20.9 0.00 0.00 0.00 31 1011.6
20260503173819 67 0 10.4 20.9 0.00 0.00 0.00 29 1011.6
20260503173320 67 345 13.9 22.6 0.00 0.00 0.00 30 1011.6
20260503172822 67 13 15.6 22.6 0.00 0.00 0.00 29 1011.6
20260503172318 67 352 11.3 19.1 0.00 0.00 0.00 29 1011.6
20260503171823 67 344 13.9 20.9 0.00 0.00 0.00 29 1011.6
20260503171319 66 351 14.8 20.9 0.00 0.00 0.00 30 1011.8
20260503170816 66 347 15.6 21.7 0.00 0.00 0.00 30 1011.7
20260503170534 65 351 13.9 21.7 0.00 0.00 0.00 30 1011.9
20260503150719 58 284 7.0 8.7 0.00 0.00 0.00 37 1012.0
20260503150222 58 286 7.0 8.7 0.00 0.00 0.00 37 1012.0
20260503140151 51 269 7.8 10.4 0.00 0.00 0.00 40 1012.0
20260503131133 48 293 7.0 11.3 0.00 0.00 0.00 44 1012.4
20260503130900 49 327 7.8 11.3 0.00 0.00 0.00 42 1012.4
20260503130130 48 287 8.7 11.3 0.00 0.00 0.00 41 1012.3
20260503120109 46 289 7.8 9.6 0.00 0.00 0.00 42 1012.3
20260503110544 45 280 7.8 9.6 0.00 0.00 0.00 43 1012.6
20260503090454 43 286 5.2 8.7 0.00 0.00 0.00 46 1012.7
20260503080938 42 302 6.1 7.8 0.00 0.00 0.00 51 1012.7
20260503080435 42 294 6.1 8.7 0.00 0.00 0.00 51 1012.8
20260503072917 43 294 7.0 9.6 0.00 0.00 0.00 52 1012.8
20260503072417 43 300 7.8 10.4 0.00 0.00 0.00 52 1012.8
20260503071916 44 297 8.7 10.4 0.00 0.00 0.00 49 1012.8
20260503071414 45 300 9.6 10.4 0.00 0.00 0.00 48 1012.8
20260503070914 45 304 8.7 10.4 0.00 0.00 0.00 47 1012.8
20260503070413 45 298 7.8 11.3 0.00 0.00 0.00 47 1012.8
20260503070130 44 288 9.6 11.3 0.00 0.00 0.00 46 1012.8
20260503055116 47 296 7.0 9.6 0.00 0.00 0.00 48 1012.7
20260503054611 47 290 7.8 8.7 0.00 0.00 0.00 46 1012.7
20260503053848 47 287 7.8 8.7 0.00 0.00 0.00 47 1012.7
20260503053347 47 286 5.2 7.8 0.00 0.00 0.00 48 1012.7
20260503052847 48 298 5.2 7.8 0.00 0.00 0.00 48 1012.7
20260503052348 48 298 7.0 7.8 0.00 0.00 0.00 48 1012.6